User: anonymous   Login
Location: Dumpton Point
(51.3500°N, 1.4433°E)
Time: 20:36:53
(UTC+00:00)
Language:

Hubble Space Telescope - Orbit

View from above orbital plane
View from above orbital plane
View from above satellite
View from above satellite

Ground track
Ground track

The orbit data is extracted from the following two-line orbital elements,

1 20580U 90037B   22022.32060573  .00001412  00000-0  73906-4 0  9995
2 20580  28.4711  56.6125 0002344 258.9601 197.9651 15.09960998544365
Epoch (UTC): 22 January 2022 07:41:40
Eccentricity: 0.0002344
inclination: 28.4711°
perigee height: 535 km
apogee height: 538 km
right ascension of ascending node: 56.6125°
argument of perigee: 258.9601°
revolutions per day: 15.09960998
mean anomaly at epoch: 197.9651°
orbit number at epoch: 54436

The dashed part of the orbit path shows where the satellite is in the earth's shadow,  

DLR